Tracking 31027 objects as of 19-Jul-2025
HD Live streaming from Space Station
objects crossing your sky now

ONEWEB-0127

Track ONEWEB-0127 now!
10-day predictions
ONEWEB-0127 is classified as:


NORAD ID: 47273
Int'l Code: 2020-100R
Perigee: 1,219.5 km
Apogee: 1,222.3 km
Inclination: 87.9 °
Period: 109.7 minutes
Semi major axis: 7591 km
RCS: Unknown
Launch date: December 18, 2020
Source: United Kingdom (UK)
Launch site: VOSTOCHNY COSMODROME (VOSTO)
Your satellite tracking list
DEWASAT-2
Track 1 satellite(s)




NASA's NSSDC Master Catalog

Two Line Element Set (TLE):
1 47273U 20100R   25199.31817356 -.00000328  00000-0 -94716-3 0  9991
2 47273  87.8863  57.0631 0001831  78.2383 281.8950 13.12441259220932
Source of the keplerian elements: AFSPC